Weather History for KLOZ - October, 2012

Change the Weather History Date:

Monday, October 1, 2012

  Actual Average Record
Temperature  
Mean Temperature 61 °F 62 °F  
Max Temperature 66 °F 74 °F 87 °F (1956)
Min Temperature 55 °F 50 °F 34 °F (1974)
Degree Days  
Heating Degree Days 4 4  
Month to date heating degree days 4 4  
Since 1 July heating degree days 67 51  
Cooling Degree Days 0 2  
Month to date cooling degree days 0 2  
Year to date cooling degree days 1222 1167  
Growing Degree Days 10 (Base 50)    
Moisture  
Dew Point 58 °F    
Average Humidity 94    
Maximum Humidity 100    
Minimum Humidity 87    
Precipitation  
Precipitation 1.13 in 0.10 in 4.78 in (1977)
Month to date precipitation 1.13 0.10  
Year to date precipitation 37.55 36.15  
Sea Level Pressure  
Sea Level Pressure 29.74 in    
Wind  
Wind Speed 5 mph (ENE)    
Max Wind Speed 12 mph    
Max Gust Speed 16 mph    
Visibility 7 miles    
Events Rain    
T = Trace of Precipitation, MM = Missing Value Source: NWS Daily Summary

Daily Weather History Graph

Daily Weather History Graph

Search for Another Location

Airport or City:

Trip Planner

Search our weather history database for the weather conditions in past years. The results will help you decide how hot, cold, wet, or windy it might be!

Date:

Astronomy

Oct. 01, 2012 Rise Set
Actual Time 7:32 AM EDT 7:18 PM EDT
Civil Twilight 7:06 AM EDT 7:44 PM EDT
Nautical Twilight 6:36 AM EDT 8:14 PM EDT
Astronomical Twilight 6:05 AM EDT 8:45 PM EDT
Moon 7:59 PM EDT (10/1) 8:57 AM EDT (10/1)
Length of Visible Light 12h 38m
Length of Day
11h 46m
Full, 98% of the Moon is Illuminated
Oct 1
Full
Oct 8
Last Quarter
Oct 15
New
Oct 21
First Quarter
Oct 29
Full

Hourly Weather History & Observations

Time (EDT) Temp. Dew Point Humidity Pressure Visibility Wind Dir Wind Speed Gust Speed Precip Events Conditions
12:53 AM 57.9 °F 57.0 °F 97% 29.84 in 8.0 mi Calm Calm - N/A   Clear
2:53 AM 57.9 °F 55.9 °F 93% 29.81 in 8.0 mi Calm Calm - N/A   Partly Cloudy
3:53 AM 57.9 °F 55.0 °F 90% 29.79 in 10.0 mi Calm Calm - 0.00 in Rain Light Rain
4:53 AM 57.9 °F 54.0 °F 87% 29.79 in 10.0 mi Calm Calm - 0.01 in Rain Light Rain
5:53 AM 55.9 °F 54.0 °F 93% 29.80 in 10.0 mi Calm Calm - 0.00 in Rain Light Rain
6:53 AM 55.0 °F 54.0 °F 96% 29.78 in 5.0 mi East 4.6 mph - 0.16 in Rain Rain
8:03 AM 55.4 °F 53.6 °F 94% 29.80 in 1.5 mi ENE 3.5 mph - 0.08 in Rain Heavy Rain
8:53 AM 55.9 °F 55.0 °F 97% 29.78 in 2.5 mi ENE 6.9 mph - 0.39 in Rain Rain
9:01 AM 55.4 °F 55.4 °F 100% 29.79 in 4.0 mi ENE 6.9 mph - 0.00 in Rain Light Rain
9:18 AM 57.2 °F 55.4 °F 94% 29.79 in 2.0 mi ENE 6.9 mph - 0.03 in Rain Light Rain
9:53 AM 57.0 °F 55.0 °F 93% 29.77 in 1.8 mi NE 8.1 mph - 0.14 in Rain Heavy Rain
10:01 AM 57.2 °F 55.4 °F 94% 29.79 in 2.0 mi NE 5.8 mph - 0.04 in Rain Rain
10:13 AM 57.2 °F 55.4 °F 94% 29.79 in 4.0 mi NE 3.5 mph - 0.06 in Rain Rain
10:53 AM 57.9 °F 55.9 °F 93% 29.76 in 8.0 mi East 6.9 mph - 0.12 in Rain Light Rain
11:01 AM 57.2 °F 55.4 °F 94% 29.78 in 10.0 mi ENE 5.8 mph - 0.00 in Rain Light Rain
11:20 AM 57.2 °F 57.2 °F 100% 29.77 in 10.0 mi ENE 6.9 mph - 0.00 in   Overcast
11:53 AM 59.0 °F 57.0 °F 93% 29.75 in 10.0 mi NE 8.1 mph - 0.01 in Rain Light Rain
12:43 PM 59.0 °F 57.2 °F 94% 29.76 in 6.0 mi Variable 6.9 mph - 0.04 in Rain Light Rain
12:53 PM 59.0 °F 57.9 °F 96% 29.74 in 6.0 mi East 9.2 mph - 0.05 in Rain Light Rain
1:05 PM 60.8 °F 57.2 °F 88% 29.76 in 6.0 mi East 6.9 mph - 0.01 in Rain Light Rain
1:53 PM 60.1 °F 57.9 °F 93% 29.70 in 3.0 mi ENE 8.1 mph - 0.09 in Rain Light Rain
2:26 PM 60.8 °F 59.0 °F 94% 29.71 in 8.0 mi East 6.9 mph - 0.02 in Rain Rain
2:53 PM 61.0 °F 59.0 °F 93% 29.69 in 8.0 mi East 9.2 mph - 0.04 in Rain Light Rain
3:19 PM 60.8 °F 60.8 °F 100% 29.69 in 10.0 mi East 6.9 mph - 0.01 in   Overcast
3:28 PM 62.6 °F 60.8 °F 94% 29.69 in 10.0 mi East 8.1 mph - 0.01 in   Overcast
3:53 PM 63.0 °F 61.0 °F 93% 29.66 in 10.0 mi ENE 4.6 mph - 0.01 in   Overcast
4:25 PM 62.6 °F 62.6 °F 100% 29.68 in 6.0 mi East 3.5 mph - 0.00 in Rain Light Rain
4:53 PM 64.0 °F 62.1 °F 93% 29.65 in 10.0 mi East 5.8 mph - 0.05 in   Overcast
6:53 PM 64.9 °F 63.0 °F 93% 29.64 in 10.0 mi Calm Calm - 0.00 in   Overcast
7:53 PM 64.0 °F 63.0 °F 96% 29.64 in 10.0 mi Calm Calm - N/A   Overcast
8:53 PM 64.0 °F 61.0 °F 90% 29.64 in 10.0 mi SE 6.9 mph - N/A   Partly Cloudy
9:53 PM 64.0 °F 61.0 °F 90% 29.65 in 10.0 mi ESE 4.6 mph - N/A   Clear
10:53 PM 64.9 °F 61.0 °F 87% 29.65 in 10.0 mi ESE 5.8 mph - N/A   Overcast